• In Hungary
  • List of Countries
  • For 7 days
  • Water Temperature
  • Satellite Maps
  • Weather Map
  • News
  • Weather Widgets
  • user-avatar
    Login

    Hourly Weather Ruchkovo

    Today, 19 January, Friday

    Time Temperature Precipitation Wind Pressure Humidity
    00:00 -6°C° 0.5 mm 3 mps 741 mmHg 94%
    01:00 -5°C° 0.5 mm 3 mps 741 mmHg 93%
    02:00 -4°C° 0 mm 2 mps 742 mmHg 94%
    03:00 -5°C° 0.3 mm 3 mps 741 mmHg 91%
    04:00 -5°C° 0.3 mm 4 mps 741 mmHg 89%
    05:00 -6°C° 0.3 mm 5 mps 741 mmHg 87%
    06:00 -6°C° 0.1 mm 5 mps 741 mmHg 86%
    07:00 -7°C° 0.1 mm 5 mps 741 mmHg 86%
    08:00 -7°C° 0 mm 5 mps 742 mmHg 85%
    09:00 -8°C° 0.1 mm 5 mps 742 mmHg 83%
    10:00 -8°C° 0.1 mm 5 mps 742 mmHg 81%
    11:00 -10°C° 0.1 mm 5 mps 743 mmHg 79%
    12:00 -10°C° 0 mm 5 mps 743 mmHg 79%
    13:00 -10°C° 0 mm 5 mps 743 mmHg 78%
    14:00 -10°C° 0 mm 5 mps 743 mmHg 78%
    15:00 -10°C° 0 mm 5 mps 743 mmHg 79%
    16:00 -11°C° 0 mm 6 mps 743 mmHg 79%
    17:00 -11°C° 0 mm 6 mps 743 mmHg 80%
    18:00 -11°C° 0 mm 6 mps 743 mmHg 80%
    19:00 -11°C° 0 mm 6 mps 743 mmHg 80%
    20:00 -11°C° 0 mm 5 mps 744 mmHg 80%
    21:00 -11°C° 0.1 mm 5 mps 744 mmHg 82%
    22:00 -11°C° 0.1 mm 5 mps 744 mmHg 83%
    23:00 -11°C° 0.1 mm 5 mps 744 mmHg 85%

    Tomorrow, 20 January, Saturday

    Time Temperature Precipitation Wind Pressure Humidity
    00:00 -12°C° 0.2 mm 5 mps 744 mmHg 86%
    01:00 -12°C° 0.2 mm 5 mps 744 mmHg 88%
    02:00 -11°C° 0.2 mm 4 mps 744 mmHg 89%
    03:00 -11°C° 0.3 mm 4 mps 743 mmHg 90%
    04:00 -11°C° 0.3 mm 4 mps 743 mmHg 90%
    05:00 -11°C° 0.3 mm 4 mps 743 mmHg 91%
    06:00 -11°C° 0.2 mm 4 mps 743 mmHg 91%
    07:00 -11°C° 0.2 mm 4 mps 743 mmHg 91%
    08:00 -11°C° 0.2 mm 4 mps 743 mmHg 91%
    09:00 -11°C° 0.1 mm 4 mps 743 mmHg 90%
    10:00 -10°C° 0.1 mm 3 mps 743 mmHg 89%
    11:00 -10°C° 0.1 mm 3 mps 743 mmHg 89%
    12:00 -9°C° 0.1 mm 3 mps 742 mmHg 89%
    13:00 -9°C° 0.1 mm 3 mps 742 mmHg 89%
    14:00 -9°C° 0.1 mm 3 mps 742 mmHg 89%
    15:00 -9°C° 0.1 mm 3 mps 742 mmHg 90%
    16:00 -10°C° 0.1 mm 3 mps 742 mmHg 91%
    17:00 -10°C° 0.1 mm 3 mps 742 mmHg 92%
    18:00 -10°C° 0.1 mm 3 mps 742 mmHg 92%
    19:00 -9°C° 0.1 mm 2 mps 742 mmHg 93%
    20:00 -9°C° 0.1 mm 2 mps 742 mmHg 93%
    21:00 -9°C° 0.1 mm 2 mps 742 mmHg 94%
    22:00 -9°C° 0.1 mm 2 mps 742 mmHg 94%
    23:00 -9°C° 0.1 mm 2 mps 742 mmHg 95%

    Day after tomorrow, 21 January, Sunday

    Time Temperature Precipitation Wind Pressure Humidity
    00:00 -9°C° 0.1 mm 2 mps 742 mmHg 95%
    01:00 -9°C° 0.1 mm 2 mps 742 mmHg 95%
    02:00 -8°C° 0.1 mm 1 mps 742 mmHg 96%
    03:00 -8°C° 0.1 mm 1 mps 742 mmHg 96%
    04:00 -8°C° 0.1 mm 1 mps 742 mmHg 96%
    05:00 -7°C° 0.1 mm 1 mps 742 mmHg 97%
    06:00 -7°C° 0 mm 1 mps 742 mmHg 97%
    07:00 -7°C° 0 mm 1 mps 743 mmHg 97%
    08:00 -7°C° 0 mm 1 mps 743 mmHg 97%
    09:00 -6°C° 0.1 mm 1 mps 743 mmHg 95%
    10:00 -4°C° 0.1 mm 1 mps 743 mmHg 94%
    11:00 -3°C° 0.1 mm 1 mps 744 mmHg 92%
    12:00 -3°C° 0 mm 1 mps 744 mmHg 92%
    13:00 -3°C° 0 mm 1 mps 744 mmHg 91%
    14:00 -3°C° 0 mm 0 mps 744 mmHg 91%
    15:00 -4°C° 0 mm 0 mps 744 mmHg 92%
    16:00 -5°C° 0 mm 0 mps 744 mmHg 94%
    17:00 -5°C° 0 mm 0 mps 744 mmHg 95%
    18:00 -4°C° 0 mm 1 mps 744 mmHg 96%
    19:00 -6°C° 0 mm 1 mps 744 mmHg 96%
    20:00 -6°C° 0 mm 1 mps 744 mmHg 96%
    21:00 -6°C° 0 mm 1 mps 744 mmHg 97%
    22:00 -7°C° 0 mm 2 mps 744 mmHg 97%
    23:00 -8°C° 0 mm 2 mps 744 mmHg 97%

    22 January, Monday

    Time Temperature Precipitation Wind Pressure Humidity
    00:00 -8°C° 0 mm 2 mps 744 mmHg 96%
    01:00 -8°C° 0 mm 2 mps 743 mmHg 96%
    02:00 -9°C° 0 mm 3 mps 743 mmHg 95%
    03:00 -9°C° 0.1 mm 3 mps 743 mmHg 95%
    04:00 -9°C° 0.1 mm 3 mps 743 mmHg 94%
    05:00 -9°C° 0.1 mm 3 mps 743 mmHg 94%
    06:00 -10°C° 0 mm 3 mps 744 mmHg 93%
    07:00 -10°C° 0 mm 3 mps 744 mmHg 93%
    08:00 -12°C° 0 mm 3 mps 744 mmHg 92%
    09:00 -12°C° 0 mm 3 mps 744 mmHg 91%
    10:00 -10°C° 0 mm 3 mps 745 mmHg 90%
    11:00 -11°C° 0 mm 4 mps 745 mmHg 89%
    12:00 -10°C° 0 mm 3 mps 745 mmHg 89%
    13:00 -10°C° 0 mm 3 mps 746 mmHg 88%
    14:00 -10°C° 0 mm 3 mps 746 mmHg 87%
    15:00 -10°C° 0 mm 3 mps 747 mmHg 88%
    16:00 -12°C° 0 mm 3 mps 747 mmHg 89%
    17:00 -10°C° 0 mm 2 mps 748 mmHg 90%
    18:00 -12°C° 0 mm 2 mps 748 mmHg 91%
    19:00 -13°C° 0 mm 2 mps 749 mmHg 92%
    20:00 -13°C° 0 mm 2 mps 749 mmHg 93%
    21:00 -14°C° 0 mm 2 mps 750 mmHg 93%
    22:00 -14°C° 0 mm 2 mps 750 mmHg 94%
    23:00 -15°C° 0 mm 2 mps 751 mmHg 95%

    23 January, Tuesday

    Time Temperature Precipitation Wind Pressure Humidity
    00:00 -15°C° 0 mm 2 mps 751 mmHg 95%
    01:00 -14°C° 0 mm 1 mps 752 mmHg 96%
    02:00 -14°C° 0 mm 1 mps 752 mmHg 96%
    03:00 -14°C° 0 mm 1 mps 752 mmHg 96%
    04:00 -15°C° 0 mm 1 mps 753 mmHg 96%
    05:00 -15°C° 0 mm 1 mps 753 mmHg 96%
    06:00 -15°C° 0 mm 1 mps 753 mmHg 97%
    07:00 -15°C° 0 mm 1 mps 754 mmHg 97%
    08:00 -15°C° 0 mm 1 mps 754 mmHg 97%
    09:00 -14°C° 0 mm 1 mps 755 mmHg 95%
    10:00 -13°C° 0 mm 1 mps 755 mmHg 93%
    11:00 -11°C° 0 mm 1 mps 755 mmHg 92%
    12:00 -11°C° 0 mm 1 mps 755 mmHg 91%
    13:00 -11°C° 0 mm 1 mps 756 mmHg 91%
    14:00 -10°C° 0 mm 1 mps 756 mmHg 91%
    15:00 -11°C° 0 mm 1 mps 756 mmHg 93%
    16:00 -11°C° 0 mm 1 mps 756 mmHg 94%
    17:00 -12°C° 0 mm 1 mps 757 mmHg 96%
    18:00 -12°C° 0 mm 1 mps 757 mmHg 96%
    19:00 -12°C° 0 mm 1 mps 757 mmHg 96%
    20:00 -12°C° 0 mm 1 mps 757 mmHg 96%
    21:00 -12°C° 0 mm 1 mps 757 mmHg 96%
    22:00 -13°C° 0 mm 1 mps 757 mmHg 96%
    23:00 -13°C° 0 mm 1 mps 758 mmHg 96%

    24 January, Wednesday

    Time Temperature Precipitation Wind Pressure Humidity
    00:00 -13°C° 0 mm 1 mps 758 mmHg 96%
    01:00 -14°C° 0 mm 1 mps 758 mmHg 97%
    02:00 -14°C° 0 mm 1 mps 758 mmHg 97%
    03:00 -14°C° 0 mm 0 mps 758 mmHg 97%
    04:00 -14°C° 0 mm 0 mps 758 mmHg 97%
    05:00 -14°C° 0 mm 0 mps 758 mmHg 97%
    06:00 -14°C° 0 mm 0 mps 759 mmHg 97%
    07:00 -14°C° 0 mm 0 mps 759 mmHg 97%
    08:00 -15°C° 0 mm 0 mps 759 mmHg 97%
    09:00 -13°C° 0 mm 0 mps 759 mmHg 95%
    10:00 -12°C° 0 mm 0 mps 760 mmHg 93%
    11:00 -11°C° 0 mm 0 mps 760 mmHg 90%
    12:00 -11°C° 0 mm 0 mps 760 mmHg 90%
    13:00 -10°C° 0 mm 0 mps 760 mmHg 89%
    14:00 -10°C° 0 mm 0 mps 760 mmHg 89%
    15:00 -11°C° 0 mm 0 mps 760 mmHg 91%
    16:00 -12°C° 0 mm 0 mps 760 mmHg 93%
    17:00 -13°C° 0 mm 0 mps 760 mmHg 95%
    18:00 -13°C° 0 mm 0 mps 761 mmHg 95%
    19:00 -14°C° 0 mm 0 mps 761 mmHg 95%
    20:00 -14°C° 0 mm 0 mps 761 mmHg 96%
    21:00 -14°C° 0 mm 1 mps 761 mmHg 95%
    22:00 -15°C° 0 mm 1 mps 761 mmHg 95%
    23:00 -15°C° 0 mm 1 mps 761 mmHg 95%
    Show more